�������l�o���
Date,Time,MP-1(��Sv/h),MP-2(��Sv/h),MP-3(��Sv/h),MP-4(��Sv/h),MP-5(��Sv/h),MP-6(��Sv/h),MP-7(��Sv/h),MP-8(��Sv/h),����,����(m/s),���J
2017/02/17,00:00,1.058,1.772,1.178,2.037,1.425,0.561,1.021,0.948,�쐼,10.2,��
2017/02/17,00:10,1.062,1.774,1.174,2.039,1.425,0.560,1.022,0.948,�쐼,10.1,��
2017/02/17,00:20,1.060,1.775,1.176,2.040,1.426,0.561,1.023,0.949,�쐼,10.0,��
2017/02/17,00:30,1.062,1.775,1.177,2.037,1.424,0.561,1.023,0.947,�쐼,9.0,��
2017/02/17,00:40,1.060,1.772,1.176,2.039,1.423,0.560,1.022,0.947,��쐼,8.7,��
2017/02/17,00:50,1.061,1.775,1.176,2.041,1.425,0.560,1.022,0.948,��쐼,9.0,��
2017/02/17,01:00,1.058,1.775,1.173,2.038,1.425,0.561,1.021,0.947,��쐼,7.9,��
2017/02/17,01:10,1.059,1.771,1.177,2.037,1.425,0.560,1.023,0.948,��쐼,7.2,��
2017/02/17,01:20,1.062,1.773,1.176,2.038,1.424,0.562,1.023,0.948,�쐼,6.0,��
2017/02/17,01:30,1.061,1.774,1.176,2.038,1.425,0.561,1.022,0.949,�쐼,8.6,��
2017/02/17,01:40,1.060,1.774,1.175,2.037,1.426,0.563,1.023,0.948,�쐼,8.4,��
2017/02/17,01:50,1.061,1.772,1.179,2.039,1.424,0.562,1.023,0.949,�쐼,8.0,��
2017/02/17,02:00,1.062,1.774,1.176,2.038,1.426,0.562,1.023,0.948,�쐼,8.3,��
2017/02/17,02:10,1.060,1.775,1.176,2.040,1.424,0.561,1.024,0.949,�쐼,8.1,��
2017/02/17,02:20,1.062,1.775,1.175,2.039,1.424,0.562,1.024,0.948,�쐼,7.9,��
2017/02/17,02:30,1.061,1.773,1.178,2.039,1.423,0.561,1.025,0.950,�쐼,7.3,��
2017/02/17,02:40,1.059,1.774,1.175,2.036,1.422,0.561,1.023,0.948,��쐼,3.8,��
2017/02/17,02:50,1.062,1.773,1.176,2.037,1.425,0.561,1.023,0.950,���쓌,1.2,��
2017/02/17,03:00,1.057,1.773,1.174,2.036,1.426,0.562,1.023,0.949,��쐼,1.7,��
2017/02/17,03:10,1.059,1.774,1.175,2.039,1.423,0.561,1.024,0.951,�쐼,2.8,��
2017/02/17,03:20,1.059,1.770,1.175,2.035,1.426,0.562,1.021,0.948,��쐼,2.2,��
2017/02/17,03:30,1.061,1.772,1.176,2.038,1.426,0.561,1.021,0.949,��,1.2,��
2017/02/17,03:40,1.061,1.771,1.175,2.036,1.424,0.562,1.022,0.949,��,0.8,��
2017/02/17,03:50,1.059,1.772,1.173,2.037,1.425,0.561,1.021,0.950,-,CALM,��
2017/02/17,04:00,1.062,1.772,1.175,2.038,1.424,0.559,1.020,0.947,-,CALM,��
2017/02/17,04:10,1.060,1.774,1.174,2.035,1.425,0.561,1.019,0.949,��,1.5,��
2017/02/17,04:20,1.060,1.775,1.174,2.036,1.423,0.560,1.022,0.949,��쐼,2.6,��
2017/02/17,04:30,1.060,1.771,1.173,2.033,1.423,0.561,1.021,0.950,��,1.1,��
2017/02/17,04:40,1.060,1.771,1.173,2.032,1.424,0.560,1.021,0.947,��,0.8,��
2017/02/17,04:50,1.059,1.768,1.174,2.036,1.421,0.559,1.020,0.948,-,CALM,��
2017/02/17,05:00,1.059,1.773,1.172,2.035,1.424,0.559,1.019,0.948,�쓌,0.6,��
2017/02/17,05:10,1.060,1.773,1.173,2.034,1.423,0.560,1.021,0.947,���k��,1.1,��
2017/02/17,05:20,1.059,1.772,1.173,2.033,1.426,0.561,1.021,0.946,���k��,0.9,��
2017/02/17,05:30,1.059,1.772,1.172,2.034,1.425,0.560,1.020,0.947,��,1.2,��
2017/02/17,05:40,1.059,1.772,1.175,2.037,1.422,0.558,1.020,0.947,��,0.9,��
2017/02/17,05:50,1.058,1.771,1.172,2.036,1.424,0.560,1.021,0.947,�쓌,2.6,��
2017/02/17,06:00,1.060,1.769,1.173,2.035,1.424,0.558,1.020,0.946,��쓌,3.2,��
2017/02/17,06:10,1.060,1.769,1.172,2.035,1.424,0.559,1.019,0.947,��쓌,5.1,��
2017/02/17,06:20,1.060,1.773,1.173,2.032,1.424,0.558,1.019,0.947,��쓌,3.7,��
2017/02/17,06:30,1.060,1.771,1.173,2.036,1.425,0.559,1.020,0.948,��쓌,3.7,��
2017/02/17,06:40,1.057,1.768,1.174,2.034,1.423,0.559,1.020,0.948,��,4.7,��
2017/02/17,06:50,1.057,1.770,1.175,2.034,1.423,0.562,1.020,0.949,��,4.2,��
2017/02/17,07:00,1.058,1.769,1.173,2.038,1.424,0.560,1.021,0.948,��쓌,5.4,��
2017/02/17,07:10,1.059,1.770,1.171,2.034,1.421,0.558,1.021,0.948,��쓌,3.5,��
2017/02/17,07:20,1.058,1.770,1.178,2.036,1.424,0.559,1.021,0.949,��쓌,4.0,��
2017/02/17,07:30,1.059,1.774,1.179,2.037,1.423,0.560,1.020,0.949,��쓌,3.6,��
2017/02/17,07:40,1.059,1.772,1.180,2.038,1.422,0.558,1.023,0.948,��,3.9,��
2017/02/17,07:50,1.061,1.775,1.179,2.039,1.421,0.559,1.020,0.949,��,5.2,��
2017/02/17,08:00,1.060,1.774,1.177,2.036,1.422,0.559,1.021,0.948,��쓌,5.1,��
2017/02/17,08:10,1.063,1.773,1.178,2.040,1.426,0.559,1.023,0.949,��쓌,4.1,��
2017/02/17,08:20,1.063,1.775,1.180,2.038,1.426,0.557,1.023,0.950,��쓌,4.4,��
2017/02/17,08:30,1.062,1.775,1.179,2.041,1.422,0.562,1.025,0.950,��쓌,4.4,��
2017/02/17,08:40,1.063,1.778,1.180,2.038,1.423,0.561,1.024,0.952,��쓌,3.4,��
2017/02/17,08:50,1.064,1.777,1.180,2.039,1.424,0.561,1.025,0.949,��쓌,5.1,��
2017/02/17,09:00,1.063,1.780,1.182,2.041,1.424,0.562,1.027,0.950,��쓌,4.9,��
2017/02/17,09:10,1.064,1.774,1.182,2.041,1.423,0.561,1.026,0.949,��쓌,6.1,��
2017/02/17,09:20,1.064,1.776,1.184,2.040,1.427,0.562,1.024,0.951,��쓌,6.5,��
2017/02/17,09:30,1.059,1.775,1.182,2.041,1.427,0.561,1.026,0.950,��쓌,5.4,��
2017/02/17,09:40,1.064,1.777,1.183,2.041,1.428,0.561,1.024,0.952,��쓌,5.7,��
2017/02/17,09:50,1.066,1.767,1.183,2.042,1.429,0.564,1.025,0.950,��쓌,6.8,��
2017/02/17,10:00,1.066,1.778,1.182,2.040,1.431,0.562,1.024,0.951,��,7.0,��
2017/02/17,10:10,1.067,1.774,1.184,2.044,1.429,0.564,1.023,0.951,��,7.3,��
2017/02/17,10:20,1.069,1.772,1.185,2.044,1.429,0.564,1.025,0.952,��쓌,7.9,��
2017/02/17,10:30,1.067,1.773,1.184,2.044,1.430,0.563,1.024,0.952,��쓌,9.3,��
2017/02/17,10:40,1.066,1.775,1.185,2.046,1.428,0.563,1.026,0.951,��쓌,9.9,��
2017/02/17,10:50,1.069,1.772,1.187,2.046,1.428,0.562,1.027,-,��쓌,9.8,��
2017/02/17,11:00,1.067,1.779,1.188,2.046,1.427,0.562,1.025,-,��쓌,9.7,��
2017/02/17,11:10,1.068,1.776,1.184,2.044,1.428,0.561,1.028,-,��쓌,9.9,��
2017/02/17,11:20,1.069,1.776,1.188,2.047,1.428,0.562,1.025,-,��쓌,11.1,��
2017/02/17,11:30,1.066,1.782,1.188,2.046,1.427,0.563,1.025,-,��쓌,11.7,��
2017/02/17,11:40,1.068,1.779,1.189,2.048,1.429,0.564,1.026,-,��쓌,9.4,��
2017/02/17,11:50,1.070,1.773,1.188,2.046,1.429,0.563,1.026,-,��쓌,8.6,��
2017/02/17,12:00,1.068,1.776,1.188,2.046,1.430,0.565,1.026,-,��쓌,10.2,��
2017/02/17,12:10,1.068,1.779,1.190,2.048,1.427,0.565,1.026,-,��쓌,9.1,��
2017/02/17,12:20,1.071,1.783,1.190,2.046,1.432,0.567,1.028,-,��,7.5,��
2017/02/17,12:30,1.073,1.782,1.190,2.049,1.431,0.569,1.030,-,���쐼,9.0,��
2017/02/17,12:40,1.073,1.781,1.189,2.051,1.433,0.566,1.029,-,�쐼,11.0,��
2017/02/17,12:50,1.072,1.784,1.189,2.050,1.433,0.569,1.027,-,�쐼,11.0,��
2017/02/17,13:00,1.074,1.782,1.190,2.051,1.433,0.569,1.030,-,�쐼,7.7,��
2017/02/17,13:10,1.073,1.782,1.191,2.053,1.434,0.567,1.030,-,�쐼,7.4,��
2017/02/17,13:20,1.075,1.781,1.189,2.053,1.435,0.567,1.031,-,�쐼,6.6,��
2017/02/17,13:30,1.075,1.783,1.191,2.054,1.434,0.570,1.032,-,�쐼,9.4,��
2017/02/17,13:40,1.074,1.781,1.191,2.052,1.435,0.567,1.031,-,�쐼,9.7,��
2017/02/17,13:50,1.073,1.783,1.195,2.053,1.434,0.569,1.031,-,�쐼,9.9,��
2017/02/17,14:00,1.076,1.780,1.193,2.053,1.434,0.568,1.031,-,�쐼,8.9,��
2017/02/17,14:10,1.079,1.784,1.192,2.056,1.436,0.567,1.030,-,�쐼,10.0,��
2017/02/17,14:20,1.077,1.783,1.194,2.051,1.437,0.566,1.031,-,��쐼,12.4,��
2017/02/17,14:30,1.077,1.783,1.192,2.055,1.436,0.568,1.028,-,�쐼,10.5,��
2017/02/17,14:40,1.075,1.780,1.194,2.053,1.436,0.568,1.029,-,�쐼,10.7,��
2017/02/17,14:50,1.076,1.784,1.192,2.057,1.439,0.567,1.032,-,���쐼,7.0,��
2017/02/17,15:00,1.076,1.782,1.195,2.058,1.437,0.569,1.030,-,���쐼,9.6,��
2017/02/17,15:10,1.077,1.782,1.193,2.057,1.437,0.569,1.033,-,�쐼,7.9,��
2017/02/17,15:20,1.076,1.784,1.192,2.058,1.439,0.567,1.033,-,�쐼,9.5,��
2017/02/17,15:30,1.077,1.782,1.194,2.057,1.436,0.567,1.030,-,���쐼,9.2,��
2017/02/17,15:40,1.077,1.783,1.195,2.056,1.435,0.568,1.031,-,�쐼,10.6,��
2017/02/17,15:50,1.075,1.780,1.195,2.054,1.436,0.568,1.034,-,���쐼,8.4,��
2017/02/17,16:00,1.077,1.782,1.194,2.057,1.438,0.568,1.031,-,���쐼,9.7,��
2017/02/17,16:10,1.078,1.782,1.195,2.058,1.437,0.569,1.031,-,���쐼,6.9,��
2017/02/17,16:20,1.076,1.782,1.191,2.058,1.438,0.568,1.029,0.953,���k��,6.7,��
2017/02/17,16:30,1.074,1.783,1.193,2.055,1.437,0.568,1.030,0.953,���k��,8.5,��
2017/02/17,16:40,1.074,1.783,1.192,2.053,1.437,0.570,1.030,0.951,���k��,10.4,��
2017/02/17,16:50,1.073,1.786,1.191,2.055,1.437,0.566,1.031,0.951,��,11.8,�L
2017/02/17,17:00,1.072,1.788,1.192,2.057,1.435,0.567,1.029,0.951,���k��,14.4,��
2017/02/17,17:10,1.072,1.786,1.187,2.054,1.437,0.567,1.027,0.951,���k��,13.2,��
2017/02/17,17:20,1.073,1.787,1.191,2.057,1.436,0.568,1.028,0.952,���k��,14.2,��
2017/02/17,17:30,1.073,1.785,1.193,2.055,1.431,0.568,1.027,0.952,���k��,14.6,��
2017/02/17,17:40,1.072,1.783,1.191,2.054,1.432,0.567,1.026,0.950,���k��,12.0,��
2017/02/17,17:50,1.073,1.786,1.191,2.056,1.433,0.567,1.027,0.950,��,12.7,��
2017/02/17,18:00,1.072,1.786,1.192,2.053,1.436,0.566,1.027,0.951,���k��,13.1,��
2017/02/17,18:10,1.072,1.784,1.192,2.054,1.434,0.565,1.024,0.951,���k��,15.5,��
2017/02/17,18:20,1.071,1.783,1.189,2.055,1.437,0.566,1.026,0.951,���k��,14.6,��
2017/02/17,18:30,1.073,1.785,1.192,2.054,1.439,0.567,1.025,0.952,���k��,14.7,��
2017/02/17,18:40,1.071,1.783,1.191,2.053,1.438,0.564,1.025,0.953,���k��,12.4,��
2017/02/17,18:50,1.070,1.786,1.191,2.054,1.435,0.565,1.027,0.953,���k��,11.6,��
2017/02/17,19:00,1.071,1.783,1.191,2.053,1.437,0.563,1.026,0.953,���k��,11.4,��
2017/02/17,19:10,1.071,1.783,1.191,2.052,1.434,0.564,1.025,0.952,���k��,16.3,��
2017/02/17,19:20,1.068,1.782,1.191,2.056,1.435,0.567,1.027,0.952,��,14.1,��
2017/02/17,19:30,1.071,1.782,1.191,2.056,1.434,0.565,1.027,0.954,���k��,16.0,��
2017/02/17,19:40,1.067,1.786,1.190,2.052,1.437,0.565,1.025,0.953,���k��,17.4,��
2017/02/17,19:50,1.067,1.783,1.191,2.052,1.435,0.563,1.026,0.955,���k��,15.0,��
2017/02/17,20:00,1.067,1.787,1.191,2.054,1.437,0.565,1.027,0.952,���k��,17.6,��
2017/02/17,20:10,1.069,1.783,1.189,2.052,1.437,0.565,1.026,0.954,��,14.4,��
2017/02/17,20:20,1.066,1.783,1.189,2.054,1.435,0.564,1.026,0.951,���k��,13.0,��
2017/02/17,20:30,1.067,1.785,1.190,2.056,1.436,0.564,1.026,0.953,���k��,17.1,��
2017/02/17,20:40,1.068,1.785,1.190,2.057,1.437,0.564,1.027,0.953,���k��,18.5,��
2017/02/17,20:50,1.067,1.784,1.188,2.052,1.433,0.563,1.026,0.954,���k��,16.1,��
2017/02/17,21:00,1.068,1.785,1.190,2.059,1.435,0.563,1.027,0.952,���k��,14.6,��
2017/02/17,21:10,1.068,1.786,1.191,2.056,1.436,0.565,1.025,0.952,��,14.7,��
2017/02/17,21:20,1.065,1.782,1.189,2.054,1.434,0.562,1.029,0.953,��,11.1,��
2017/02/17,21:30,1.067,1.785,1.186,2.053,1.432,0.563,1.026,0.951,��,11.9,��
2017/02/17,21:40,1.065,1.781,1.189,2.056,1.432,0.562,1.027,0.950,���k��,11.8,��
2017/02/17,21:50,1.063,1.784,1.189,2.056,1.436,0.563,1.026,0.953,���k��,15.7,��
2017/02/17,22:00,1.063,1.781,1.190,2.055,1.434,0.562,1.029,0.952,���k��,14.6,��
2017/02/17,22:10,1.066,1.782,1.187,2.057,1.436,0.562,1.028,0.951,���k��,15.3,��
2017/02/17,22:20,1.065,1.783,1.187,2.052,1.435,0.561,1.026,0.953,���k��,10.8,��
2017/02/17,22:30,1.064,1.781,1.186,2.053,1.434,0.561,1.028,0.952,���k��,11.8,��
2017/02/17,22:40,1.064,1.782,1.187,2.052,1.433,0.562,1.027,0.951,��,11.4,��
2017/02/17,22:50,1.066,1.783,1.185,2.051,1.436,0.561,1.026,0.952,���k��,13.0,��
2017/02/17,23:00,1.064,1.783,1.185,2.053,1.434,0.562,1.027,0.952,���k��,13.8,��
2017/02/17,23:10,1.064,1.783,1.184,2.052,1.430,0.561,1.027,0.951,���k��,12.7,��
2017/02/17,23:20,1.062,1.784,1.184,2.052,1.437,0.561,1.026,0.953,��,11.1,��
2017/02/17,23:30,1.064,1.783,1.181,2.055,1.432,0.560,1.027,0.953,���k��,10.7,��
2017/02/17,23:40,1.059,1.781,1.183,2.052,1.434,0.560,1.026,0.951,���k��,7.2,��
2017/02/17,23:50,1.062,1.781,1.183,2.052,1.435,0.559,1.024,0.951,���k��,6.0,��
